Nadi, Fiji

3:27 AM +12 on July 27, 2017 (GMT +1200)
Nadi International

Weather History for NFFN - January, 2013

Change the Weather History Date:

Monday, January 7, 2013

  Actual Average Record
Temperature  
Mean Temperature 82 °F -  
Max Temperature 87 °F 86 °F 89 °F (1998)
Min Temperature 76 °F 73 °F 73 °F (2003)
Cooling Degree Days 16    
Growing Degree Days 32 (Base 50)    
Moisture  
Dew Point 76 °F    
Average Humidity 85    
Maximum Humidity 100    
Minimum Humidity 62    
Precipitation  
Precipitation 0.39 in 0.39 in - ()
Sea Level Pressure  
Sea Level Pressure 29.75 in    
Wind  
Wind Speed 5 mph ()    
Max Wind Speed 18 mph    
Max Gust Speed -    
Visibility 13.7 miles    
Events Rain    
Averages and records for this station are not official NWS values.
T = Trace of Precipitation, MM = Missing Value Source: Averaged Metar Reports

Daily Weather History Graph

Daily Weather History Graph

Search for Another Location

Airport or City:

Trip Planner

Search our weather history database for the weather conditions in past years. The results will help you decide how hot, cold, wet, or windy it might be!

Date:

Astronomy

Jan. 07, 2013 Rise Set
Actual Time 6:42 AM +13 7:50 PM +13
Civil Twilight 6:18 AM +13 8:14 PM +13
Nautical Twilight 5:49 AM +13 8:42 PM +13
Astronomical Twilight 5:20 AM +13 9:11 PM +13
Moon 1:51 AM +13 (1/7) 3:00 PM +13 (1/7)
Length of Visible Light 13h 56m
Length of Day
13h 08m
Waning Crescent, 30% of the Moon is Illuminated
Jan 7
Waning Crescent
Jan 12
New
Jan 19
First Quarter
Jan 27
Full
Feb 4
Last Quarter

Hourly Weather History & Observations

Time (+13) Temp. Heat Index Dew Point Humidity Pressure Visibility Wind Dir Wind Speed Gust Speed Precip Events Conditions
12:00 AM 77.0 °F - 73.4 °F 89% 29.80 in 24.9 mi Calm Calm - N/A   Mostly Cloudy
1:00 AM 76 °F - 76 °F 98% 29.80 in 12 mi Calm Calm - - Rain Light Rain Showers
1:00 AM 77.0 °F - 75.2 °F 94% 29.80 in 24.9 mi Calm Calm - N/A Rain Light Rain Showers
2:00 AM 77.0 °F - 77.0 °F 100% 29.77 in 12.4 mi South 6.9 mph - N/A Rain Light Rain
3:00 AM 77.0 °F - 75.2 °F 94% 29.77 in 18.6 mi ESE 3.5 mph - N/A   Mostly Cloudy
4:00 AM 76 °F - 76 °F 100% 29.75 in 12 mi Calm Calm - -   Partly Cloudy
4:00 AM 77.0 °F - 77.0 °F 100% 29.74 in 18.6 mi Calm Calm - N/A   Mostly Cloudy
5:00 AM 77.0 °F - 75.2 °F 94% 29.74 in 21.8 mi ESE 4.6 mph - N/A   Mostly Cloudy
6:00 AM 77.0 °F - 77.0 °F 100% 29.74 in 21.8 mi Calm Calm - N/A Rain Light Rain Showers
7:00 AM 76 °F - 76 °F 100% 29.78 in 12 mi Calm Calm - - Rain Light Rain Showers
7:00 AM 77.0 °F - 77.0 °F 100% 29.77 in 24.9 mi Calm Calm - N/A   Mostly Cloudy
8:00 AM 77.0 °F - 75.2 °F 94% 29.80 in 31.1 mi SSW 4.6 mph - N/A   Mostly Cloudy
9:00 AM 78.8 °F - 77.0 °F 94% 29.80 in 31.1 mi East 6.9 mph - N/A   Scattered Clouds
10:00 AM 82 °F - 76 °F 78% 29.79 in 31 mi ENE 4.6 mph - -   Partly Cloudy
10:00 AM 82.4 °F 90.9 °F 77.0 °F 84% 29.77 in 31.1 mi ENE 4.6 mph - N/A   Scattered Clouds
11:00 AM 86.0 °F 95.1 °F 75.2 °F 70% 29.77 in 31.1 mi SE 5.8 mph - N/A   Scattered Clouds
12:00 PM 86.0 °F 96.9 °F 77.0 °F 74% 29.74 in 31.1 mi West 8.1 mph - N/A   Scattered Clouds
1:00 PM 87 °F - 78 °F 68% 29.75 in 31 mi WSW 13.8 mph - -   Partly Cloudy
1:00 PM 87.8 °F 102.5 °F 78.8 °F 75% 29.74 in 31.1 mi WSW 13.8 mph - N/A   Scattered Clouds
2:00 PM 87.8 °F 99.7 °F 77.0 °F 70% 29.71 in 31.1 mi South 12.7 mph - N/A   Scattered Clouds
3:00 PM 86.0 °F 95.1 °F 75.2 °F 70% 29.71 in 31.1 mi South 12.7 mph - N/A   Scattered Clouds
4:00 PM 85 °F - 83 °F 92% 29.70 in 31 mi South 9.2 mph - -   Partly Cloudy
4:00 PM 86.0 °F 104.7 °F 82.4 °F 89% 29.68 in 31.1 mi South 9.2 mph - N/A   Scattered Clouds
5:00 PM 86.0 °F 91.8 °F 71.6 °F 62% 29.68 in 31.1 mi South 18.4 mph - N/A   Scattered Clouds
6:00 PM 84.2 °F 89.6 °F 71.6 °F 66% 29.68 in 31.1 mi SSE 13.8 mph - N/A   Mostly Cloudy
7:00 PM 82 °F - 74 °F 72% 29.72 in 12 mi South 13.8 mph - -   Partly Cloudy
7:00 PM 82.4 °F 89.5 °F 75.2 °F 79% 29.71 in 28.0 mi South 13.8 mph - N/A   Mostly Cloudy
8:00 PM 80.6 °F 85.4 °F 73.4 °F 79% 29.74 in 28.0 mi South 9.2 mph - N/A   Scattered Clouds
9:00 PM 78.8 °F - 73.4 °F 83% 29.77 in 24.9 mi South 10.4 mph - N/A   Scattered Clouds
10:00 PM 79 °F - 74 °F 81% 29.78 in 12 mi South 10.4 mph - -   Partly Cloudy
10:00 PM 78.8 °F - 73.4 °F 83% 29.77 in 24.9 mi South 10.4 mph - N/A   Scattered Clouds
11:00 PM 78.8 °F - 73.4 °F 83% 29.77 in 24.9 mi South 5.8 mph - N/A   Scattered Clouds